When you browse on this site, cookies collect data to enhance your experience and personalize the content and advertising you see.
Visit our Privacy Policy to learn more. By continuing to use the site, you agree to this use of cookies and data.

Stündliche Wetter Bolshie Malosheviny

Heute, 29 September, Dienstag

Zeit Temperatur Niederschläge Wind Luftdruck Luftfeuchtigkeit
00:00 +9°C° 0.2 mm 2 m/S 753 mmHg 87%
01:00 +9°C° 0.2 mm 2 m/S 753 mmHg 89%
02:00 +9°C° 0.2 mm 2 m/S 753 mmHg 91%
03:00 +9°C° 0.1 mm 2 m/S 753 mmHg 92%
04:00 +9°C° 0.1 mm 2 m/S 753 mmHg 93%
05:00 +9°C° 0.1 mm 2 m/S 753 mmHg 94%
06:00 +10°C° 0.1 mm 2 m/S 753 mmHg 93%
07:00 +10°C° 0.1 mm 2 m/S 753 mmHg 92%
08:00 +12°C° 0.1 mm 2 m/S 753 mmHg 90%
09:00 +12°C° 0 mm 2 m/S 753 mmHg 89%
10:00 +13°C° 0 mm 2 m/S 753 mmHg 87%
11:00 +13°C° 0 mm 2 m/S 753 mmHg 85%
12:00 +14°C° 0 mm 2 m/S 753 mmHg 82%
13:00 +14°C° 0 mm 2 m/S 753 mmHg 79%
14:00 +15°C° 0 mm 2 m/S 753 mmHg 76%
15:00 +14°C° 0 mm 1 m/S 753 mmHg 80%
16:00 +13°C° 0 mm 1 m/S 752 mmHg 83%
17:00 +13°C° 0 mm 1 m/S 752 mmHg 87%
18:00 +12°C° 0 mm 1 m/S 752 mmHg 89%
19:00 +11°C° 0 mm 1 m/S 752 mmHg 91%
20:00 +11°C° 0 mm 1 m/S 752 mmHg 93%
21:00 +10°C° 0 mm 1 m/S 752 mmHg 93%
22:00 +10°C° 0 mm 1 m/S 752 mmHg 93%
23:00 +9°C° 0 mm 1 m/S 752 mmHg 92%

Morgen, 30 September, Mittwoch

Zeit Temperatur Niederschläge Wind Luftdruck Luftfeuchtigkeit
00:00 +9°C° 0 mm 1 m/S 752 mmHg 91%
01:00 +9°C° 0 mm 1 m/S 752 mmHg 90%
02:00 +9°C° 0 mm 1 m/S 752 mmHg 89%
03:00 +9°C° 0 mm 1 m/S 752 mmHg 87%
04:00 +9°C° 0 mm 1 m/S 752 mmHg 85%
05:00 +9°C° 0 mm 1 m/S 752 mmHg 83%
06:00 +9°C° 0 mm 2 m/S 752 mmHg 78%
07:00 +10°C° 0 mm 2 m/S 752 mmHg 74%
08:00 +10°C° 0 mm 2 m/S 752 mmHg 70%
09:00 +13°C° 0 mm 2 m/S 752 mmHg 64%
10:00 +14°C° 0 mm 2 m/S 752 mmHg 59%
11:00 +15°C° 0 mm 2 m/S 752 mmHg 54%
12:00 +16°C° 0 mm 2 m/S 752 mmHg 53%
13:00 +16°C° 0 mm 2 m/S 752 mmHg 51%
14:00 +17°C° 0 mm 3 m/S 752 mmHg 50%
15:00 +16°C° 0 mm 2 m/S 752 mmHg 57%
16:00 +14°C° 0 mm 2 m/S 752 mmHg 64%
17:00 +13°C° 0 mm 2 m/S 752 mmHg 72%
18:00 +12°C° 0 mm 2 m/S 752 mmHg 73%
19:00 +12°C° 0 mm 2 m/S 753 mmHg 75%
20:00 +10°C° 0 mm 2 m/S 753 mmHg 77%
21:00 +10°C° 0 mm 2 m/S 753 mmHg 78%
22:00 +10°C° 0 mm 2 m/S 753 mmHg 80%
23:00 +9°C° 0 mm 2 m/S 753 mmHg 82%

übermorgen, 1 Oktober, Donnerstag

Zeit Temperatur Niederschläge Wind Luftdruck Luftfeuchtigkeit
00:00 +9°C° 0 mm 2 m/S 753 mmHg 84%
01:00 +9°C° 0 mm 2 m/S 753 mmHg 87%
02:00 +8°C° 0 mm 2 m/S 753 mmHg 89%
03:00 +8°C° 0 mm 2 m/S 753 mmHg 89%
04:00 +8°C° 0 mm 2 m/S 753 mmHg 90%
05:00 +8°C° 0 mm 2 m/S 753 mmHg 90%
06:00 +9°C° 0 mm 2 m/S 753 mmHg 86%
07:00 +10°C° 0 mm 2 m/S 753 mmHg 81%
08:00 +11°C° 0 mm 3 m/S 753 mmHg 76%
09:00 +12°C° 0 mm 3 m/S 753 mmHg 71%
10:00 +14°C° 0 mm 3 m/S 753 mmHg 65%
11:00 +16°C° 0 mm 3 m/S 753 mmHg 60%
12:00 +17°C° 0 mm 3 m/S 753 mmHg 59%
13:00 +17°C° 0 mm 3 m/S 753 mmHg 57%
14:00 +18°C° 0 mm 3 m/S 753 mmHg 56%
15:00 +17°C° 0 mm 3 m/S 753 mmHg 62%
16:00 +15°C° 0 mm 2 m/S 753 mmHg 69%
17:00 +14°C° 0 mm 2 m/S 753 mmHg 75%
18:00 +13°C° 0 mm 2 m/S 753 mmHg 76%
19:00 +12°C° 0 mm 2 m/S 754 mmHg 77%
20:00 +12°C° 0 mm 2 m/S 754 mmHg 78%
21:00 +10°C° 0 mm 2 m/S 754 mmHg 79%
22:00 +10°C° 0 mm 2 m/S 754 mmHg 80%
23:00 +9°C° 0 mm 2 m/S 754 mmHg 80%

2 Oktober, Freitag

Zeit Temperatur Niederschläge Wind Luftdruck Luftfeuchtigkeit
00:00 +9°C° 0 mm 2 m/S 754 mmHg 81%
01:00 +9°C° 0 mm 2 m/S 754 mmHg 81%
02:00 +8°C° 0 mm 2 m/S 754 mmHg 82%
03:00 +8°C° 0 mm 2 m/S 754 mmHg 82%
04:00 +8°C° 0 mm 2 m/S 754 mmHg 82%
05:00 +8°C° 0 mm 2 m/S 754 mmHg 82%
06:00 +9°C° 0 mm 2 m/S 754 mmHg 78%
07:00 +9°C° 0 mm 2 m/S 755 mmHg 75%
08:00 +10°C° 0 mm 3 m/S 755 mmHg 71%
09:00 +11°C° 0 mm 3 m/S 755 mmHg 67%
10:00 +13°C° 0 mm 3 m/S 755 mmHg 63%
11:00 +14°C° 0 mm 3 m/S 755 mmHg 59%
12:00 +16°C° 0 mm 3 m/S 755 mmHg 58%
13:00 +17°C° 0 mm 3 m/S 755 mmHg 56%
14:00 +17°C° 0 mm 3 m/S 755 mmHg 54%
15:00 +16°C° 0 mm 3 m/S 755 mmHg 61%
16:00 +15°C° 0 mm 2 m/S 755 mmHg 67%
17:00 +13°C° 0 mm 2 m/S 755 mmHg 74%
18:00 +13°C° 0 mm 2 m/S 755 mmHg 77%
19:00 +12°C° 0 mm 2 m/S 755 mmHg 80%
20:00 +10°C° 0 mm 2 m/S 755 mmHg 83%
21:00 +10°C° 0 mm 2 m/S 756 mmHg 86%
22:00 +10°C° 0 mm 2 m/S 756 mmHg 89%
23:00 +9°C° 0 mm 2 m/S 756 mmHg 92%

3 Oktober, Samstag

Zeit Temperatur Niederschläge Wind Luftdruck Luftfeuchtigkeit
00:00 +9°C° 0 mm 2 m/S 756 mmHg 93%
01:00 +9°C° 0 mm 2 m/S 755 mmHg 94%
02:00 +9°C° 0 mm 2 m/S 755 mmHg 95%
03:00 +9°C° 0 mm 2 m/S 755 mmHg 95%
04:00 +9°C° 0 mm 2 m/S 755 mmHg 94%
05:00 +8°C° 0 mm 2 m/S 755 mmHg 94%
06:00 +9°C° 0 mm 2 m/S 755 mmHg 91%
07:00 +10°C° 0 mm 2 m/S 755 mmHg 87%
08:00 +11°C° 0 mm 3 m/S 755 mmHg 83%
09:00 +12°C° 0 mm 3 m/S 755 mmHg 77%
10:00 +14°C° 0 mm 3 m/S 755 mmHg 71%
11:00 +16°C° 0 mm 3 m/S 755 mmHg 66%
12:00 +17°C° 0 mm 3 m/S 755 mmHg 63%
13:00 +17°C° 0 mm 3 m/S 755 mmHg 61%
14:00 +18°C° 0 mm 3 m/S 755 mmHg 59%
15:00 +16°C° 0 mm 3 m/S 754 mmHg 65%
16:00 +15°C° 0 mm 2 m/S 754 mmHg 71%
17:00 +14°C° 0 mm 2 m/S 754 mmHg 77%
18:00 +13°C° 0 mm 2 m/S 754 mmHg 80%
19:00 +12°C° 0 mm 2 m/S 755 mmHg 82%
20:00 +12°C° 0 mm 2 m/S 755 mmHg 84%
21:00 +10°C° 0 mm 2 m/S 755 mmHg 85%
22:00 +10°C° 0 mm 2 m/S 755 mmHg 86%
23:00 +9°C° 0 mm 2 m/S 755 mmHg 86%

4 Oktober, Sonntag

Zeit Temperatur Niederschläge Wind Luftdruck Luftfeuchtigkeit
00:00 +9°C° 0 mm 2 m/S 755 mmHg 88%
01:00 +9°C° 0 mm 2 m/S 755 mmHg 89%
02:00 +8°C° 0 mm 2 m/S 755 mmHg 90%
03:00 +8°C° 0 mm 2 m/S 755 mmHg 91%
04:00 +8°C° 0 mm 2 m/S 755 mmHg 92%
05:00 +8°C° 0 mm 2 m/S 755 mmHg 93%
06:00 +9°C° 0 mm 3 m/S 755 mmHg 89%
07:00 +10°C° 0 mm 3 m/S 755 mmHg 86%
08:00 +10°C° 0 mm 3 m/S 755 mmHg 82%
09:00 +12°C° 0 mm 3 m/S 755 mmHg 76%
10:00 +13°C° 0 mm 4 m/S 754 mmHg 69%
11:00 +15°C° 0 mm 4 m/S 754 mmHg 62%
12:00 +15°C° 0 mm 4 m/S 754 mmHg 61%
13:00 +17°C° 0 mm 4 m/S 754 mmHg 60%
14:00 +17°C° 0 mm 4 m/S 754 mmHg 59%
15:00 +15°C° 0 mm 4 m/S 754 mmHg 65%
16:00 +14°C° 0 mm 4 m/S 754 mmHg 72%
17:00 +13°C° 0 mm 3 m/S 754 mmHg 78%
18:00 +12°C° 0 mm 3 m/S 754 mmHg 81%
19:00 +11°C° 0 mm 4 m/S 754 mmHg 83%
20:00 +11°C° 0 mm 4 m/S 754 mmHg 85%
21:00 +10°C° 0 mm 4 m/S 754 mmHg 87%
22:00 +10°C° 0 mm 4 m/S 754 mmHg 89%
23:00 +10°C° 0 mm 3 m/S 754 mmHg 91%
Mehr zeigen